Location: Fensholt
(55.9856°N, 10.0808°E)
Time: 20:12:35
(UTC+00:00)

Cosmos 1400 Rocket - Pass Details

Date: 02 October 2020
Orbit: 521 x 568 km, 81.2° (Epoch: 29 October)

Event Time Altitude Azimuth Distance (km) Brightness Sun altitude
Exits shadow 21:37:21 11° 12° (NNE) 1,822 6.0 -34.9°
Drops below altitude 10° 21:37:30 10° 12° (NNE) 1,882 6.0 -34.9°
Sets 21:39:43 0° 14° (NNE) 2,786 7.0 -35.1°
